This demonstration page uses our WeatherBlox Daily Observations layout. Learn more.

Left ArrowRight Arrow

38.20091, -84.87328

Hourly Observations for August 6, 2016

Temp ( °F °C ) Dew Point ( °F °C ) Humidity (%) Winds ( mph kmh ) Pressure ( in mb ) Visibility ( mi km ) Precip ( " mm )
12:53 am 00:53 Clear 73 22.8 69 20.6 87 87 Calm 29.91 1013 10 16 0.00 0.00
1:53 am 01:53 Clear 73 22.8 68 20 84 84 W 5 7 29.90 1013 10 16 0.00 0.00
2:53 am 02:53 Clear 73 22.8 69 20.6 87 87 WSW 3 6 29.89 1012 10 16 0.00 0.00
3:53 am 03:53 Clear 72 22.2 69 20.6 91 91 SW 3 6 29.88 1012 10 16 0.00 0.00
4:43 am 04:43 Mostly Clear 72 22.2 69 20.6 91 91 SW 5 7 29.88 1012 9 14 0.00 0.00
4:53 am 04:53 Mostly Cloudy 72 22.2 69 20.6 91 91 SW 6 9 29.89 1012 8 13 0.00 0.00
5:13 am 05:13 Cloudy 72 22.2 69 20.6 91 91 WSW 3 6 29.88 1012 9 14 0.00 0.00
5:53 am 05:53 Cloudy 73 22.8 69 20.6 87 87 WSW 3 6 29.90 1012 8 13 0.00 0.00
6:53 am 06:53 Cloudy 73 22.8 69 20.6 87 87 SW 3 6 29.91 1013 7 11 0.00 0.00
7:29 am 07:29 Cloudy 73 22.8 70 21.1 90 90 Calm 29.91 1013 8 13 0.00 0.00
7:46 am 07:46 Cloudy with Mist and Fog 73 22.8 70 21.1 90 90 W 3 6 29.91 1013 5 8 0.00 0.00
7:53 am 07:53 Cloudy with Mist and Fog 73 22.8 70 21.1 90 90 Calm 29.91 1013 4 6 0.00 0.00
8:40 am 08:40 Cloudy with Mist and Fog 74 23.3 71 21.7 91 91 VRB 3 6 29.91 1013 3 4 0.00 0.00
8:53 am 08:53 Cloudy with Mist and Fog 74 23.3 71 21.7 91 91 WSW 3 6 29.92 1013 3 5 0.00 0.00
9:53 am 09:53 Cloudy 77 25 72 22.2 85 85 NNW 6 9 29.92 1013 8 13 0.00 0.00
10:01 am 10:01 Cloudy 77 25 72 22.2 85 85 VRB 5 7 29.91 1013 7 11 0.00 0.00
10:15 am 10:15 Cloudy 77 25 72 22.2 85 85 WNW 3 6 29.91 1013 8 13 0.00 0.00
10:53 am 10:53 Cloudy 78 25.6 72 22.2 82 82 WNW 3 6 29.92 1013 9 14 0.00 0.00
11:25 am 11:25 Cloudy 79 26.1 72 22.2 79 79 Calm 29.91 1013 10 16 0.00 0.00
11:44 am 11:44 Mostly Cloudy 81 27.2 73 22.8 77 77 VRB 3 6 29.91 1013 10 16 0.00 0.00
11:53 am 11:53 Mostly Cloudy 82 27.8 73 22.8 74 74 WSW 6 9 29.92 1013 10 16 0.00 0.00
12:01 pm 12:01 Mostly Cloudy 80 26.7 73 22.8 79 79 SW 5 7 29.91 1013 10 16 0.00 0.00
12:53 pm 12:53 Cloudy 82 27.8 72 22.2 72 72 Calm 29.91 1013 10 16 0.00 0.00
1:09 pm 13:09 Cloudy 82 27.8 72 22.2 72 72 Calm 29.91 1013 10 16 0.00 0.00
1:53 pm 13:53 Mostly Cloudy 85 29.4 73 22.8 68 68 Calm 29.91 1013 10 16 0.00 0.00
2:21 pm 14:21 Mostly Cloudy with Light Rain 77 25 72 22.2 85 85 NNW 6 9 29.91 1013 1 2 0.11 2.79
2:25 pm 14:25 Mostly Cloudy with Thunderstorms 77 25 72 22.2 85 85 N 6 9 29.91 1013 3 4 0.11 2.79
2:32 pm 14:32 Cloudy with Thunderstorms 77 25 72 22.2 85 85 N 3 6 29.91 1013 10 16 0.11 2.79
2:45 pm 14:45 Cloudy with Light Rain 78 25.6 72 22.2 82 82 Calm 29.91 1013 9 14 0.11 2.79
2:53 pm 14:53 Cloudy 79 26.1 72 22.2 79 79 Calm 29.91 1013 10 16 0.11 2.79
3:53 pm 15:53 Mostly Cloudy 85 29.4 72 22.2 65 65 VRB 3 6 29.88 1012 10 16 0.00 0.00
4:53 pm 16:53 Sunny 87 30.6 67 19.4 51 51 N 9 15 29.86 1011 10 16 0.00 0.00
5:53 pm 17:53 Mostly Sunny 87 30.6 64 17.8 46 46 N 7 11 29.86 1011 10 16 0.00 0.00
6:53 pm 18:53 Sunny 85 29.4 64 17.8 50 50 N 8 13 29.87 1012 10 16 0.00 0.00
7:53 pm 19:53 Sunny 84 28.9 65 18.3 53 53 N 5 7 29.88 1012 10 16 0.00 0.00
8:53 pm 20:53 Clear 77 25 68 20 74 74 Calm 29.90 1012 10 16 0.00 0.00
9:53 pm 21:53 Clear 77 25 65 18.3 66 66 N 5 7 29.92 1013 10 16 0.00 0.00
10:53 pm 22:53 Clear 74 23.3 65 18.3 74 74 Calm 29.92 1013 10 16 0.00 0.00
11:53 pm 23:53 Clear 71 21.7 65 18.3 81 81 Calm 29.92 1013 10 16 0.00 0.00

Powered by AerisWeather